{"data":{"norad_id":61677,"intl_designator":"2024-193S","name":"STARLINK-32323","alt_names":[],"object_type":"PAYLOAD","status":"ACTIVE","operator":null,"country":"US","launch_date":"2024-10-26","launch_site_code":"AFETR","launch_vehicle":null,"mission":null,"orbit_class":"UNKNOWN","rcs_meters":null,"size_class":null,"mass_kg":null,"dimensions":null,"purposes":["comms"],"wikipedia_slug":null,"has_3d_model":false,"image_url":null,"decayed_at":null,"tle_current":{"epoch":"2026-05-25T02:45:28.609344Z","epoch_age_seconds":79272,"freshness":"FRESH","line1":"1 61677U 24193S   26145.11491446 -.00000014  00000+0  10735-4 0  9999","line2":"2 61677  53.1610  94.8887 0001353  75.5773 284.5380 15.34383310 88248","mean_motion":15.3438331,"eccentricity":0.0001353,"inclination_deg":53.161,"raan_deg":94.8887,"arg_perigee_deg":75.5773,"mean_anomaly_deg":284.538,"bstar":1.0735e-5,"rev_number":8824,"period_min":93.84877889476,"perigee_km":461.82727445774,"apogee_km":463.67841925029,"semimajor_km":6840.889846854,"source":"CELESTRAK","updated_at":"2026-05-25T13:38:19.436939Z"}}}